Simultaneous Nadir Overpasses (SNOs) Predictions

Prediction of SNOs between GOES-16 and LANDSAT-8 Satellite Orbit:

Table of predicted SNOs for the next 14.0 days since TLE Epoch: 1/14/2023
Index Date Time (GOES-16) GOES-16 Lat,Lon LANDSAT-8 Lat,Lon Distance(km) Time Diff (sec)
1 01/15/2023 03:09:56 -0.00, -75.19 0.11, -74.66 59.49 80
2 01/17/2023 02:57:43 0.00, -75.19 0.76, -71.70 397.22 80
3 01/17/2023 15:21:38 0.00, -75.21 0.33, -76.86 186.83 80
4 01/19/2023 15:06:44 -0.01, -75.22 -0.29, -73.89 151.00 80
5 01/20/2023 03:30:46 0.01, -75.21 -0.84, -79.08 440.52 80
6 01/21/2023 14:54:30 -0.02, -75.23 -0.93, -70.93 489.24 80
7 01/22/2023 03:18:33 0.02, -75.22 -0.19, -76.11 102.12 80
8 01/24/2023 03:03:38 -0.01, -75.24 0.41, -73.14 238.20 80
9 01/24/2023 15:24:52 0.02, -75.26 0.67, -78.30 345.20 80
10 01/26/2023 15:15:17 0.02, -75.29 0.03, -75.33 4.20 80
